Regional Weather Roundup
Issued by NWS State College, PA

Home | Current Version | Previous Version | Graphics & Text | Print | Product List | Glossary Off
Versions: 1 2 3 4 5 6 7 8 9 10 11 12 13 14 15 16 17 18 19 20 21 22 23 24 25 26 27 28 29 30 31 32 33 34 35 36 37 38 39 40 41 42 43 44 45 46 47 48 49 50

447
ASUS41 KCTP 242310
RWRCTP

REGIONAL WEATHER ROUNDUP
NATIONAL WEATHER SERVICE STATE COLLEGE PA
700 PM EDT SUN JUL 24 2016

Note: "fair" indicates few or no clouds below 12,000 feet with no
significant weather and/or obstructions to visibility.

* = STATION THAT DOES NOT REPORT PRECIPITATION /E.G. RAIN...SNOW...ETC/
    THUNDER OR FOG.

PAZ002>004-007>009-013>016-020>023-029>032-250000-
WESTERN PENNSYLVANIA

CITY           SKY/WX    TMP DP  RH WIND       PRES   REMARKS
ERIE           CLOUDY    79  73  82 VRB3      29.97F
MEADVILLE      CLOUDY    76  68  76 SW3       30.01F
FRANKLIN*      CLOUDY    73  70  88 CALM      30.04S
NEW CASTLE     FAIR      78  74  87 CALM      30.01S
BEAVER COUNTY  NOT AVBL
BUTLER*        CLOUDY    73  70  88 CALM      30.05S
PITTSBURGH INT CLOUDY    75  70  84 E3        30.03R
PITTSBURGH     PTSUNNY   74  70  87 SE5       30.02F
INDIANA*       PTSUNNY   73  72  94 CALM      30.08F
LATROBE        LGT RAIN  72  72 100 S6        30.04F
WASHINGTON CO* CLOUDY    75  72  88 S6        30.04R
$$

PAZ004>006-010>012-017>019-024>028-033>037-041-042-045-046-049>053-250000-
CENTRAL PENNSYLVANIA

CITY           SKY/WX    TMP DP  RH WIND       PRES   REMARKS
BRADFORD       CLOUDY    80  63  55 CALM      30.03F
DUBOIS         LGT RAIN  70  68  93 SW5       30.04F FOG
CLEARFIELD     RAIN      72  69  90 SW5       30.06R FOG
JOHNSTOWN      LGT RAIN  70  66  87 N7        30.09F FOG
ALTOONA        LGT RAIN  77  67  71 NW18G38   30.05R
STATE COLLEGE  CLOUDY    72  70  94 W10G20    30.05R
WILLIAMSPORT   CLOUDY    88  62  41 E6        29.91F
SELINSGROVE    CLOUDY    89  66  46 CALM      29.93S
FT INDIANTOWN  PTSUNNY   89  67  47 SE6       29.95S
CAPITAL CITY   PTSUNNY   91  66  43 S6        29.93S
HARRISBURG     CLOUDY    90  71  53 S5        29.93S HX  96
YORK           CLOUDY    88  69  53 SE7       29.95S
$$

PAZ038>040-043-044-047-048-054-055-060>062-067>071-250000-
EASTERN PENNSYLVANIA

CITY           SKY/WX    TMP DP  RH WIND       PRES   REMARKS
SCRANTON       PTSUNNY   90  56  31 SW8       29.96S
MOUNT POCONO   MOSUNNY   81  55  40 W6        30.04S
ALLENTOWN      MOSUNNY   93  59  31 W5        29.94F
QUAKERTOWN*    PTCLDY    91  63  38 CALM      29.97S
READING        MOSUNNY   90  64  42 S7        29.94S
LANCASTER      MOSUNNY   86  66  51 S13       29.95S
COATESVILLE    PTCLDY    82  70  65 CALM      30.00S
POTTSTOWN      MOSUNNY   88  65  46 SW7       29.97S
BLUE BELL      MOSUNNY   88  64  45 SW5       29.95S
DOYLESTOWN     PTSUNNY   88  60  38 SW5       29.94S
WILLOW GROVE   NOT AVBL
NORTH PHILA    PTSUNNY   93  63  36 W13       29.95S
PHILADELPHIA   CLOUDY    90  66  45 SW10      29.95S
$$




USA.gov is the U.S. government's official web portal to all federal, state and local government web resources and services.